Location: Hurstbourne Priors
(51.2000°N, 1.3667°W)
Time: 20:33:16
(UTC+00:00)

Transit 4A - Pass Details

Date: 22 April 2021
Orbit: 870 x 974 km, 66.8° (Epoch: 09 May)

Event Time Altitude Azimuth Distance (km) Brightness Sun altitude
Rises 03:01:23 0° 290° (WNW) 3,585 10.7 -15.8°
Reaches altitude 10° 03:04:48 10° 309° (NW) 2,622 10.2 -15.4°
Maximum altitude 03:08:57 19° 352° (N) 2,050 10.1 -15.0°
Drops below altitude 10° 03:13:02 10° 36° (NE) 2,575 11.5 -14.5°
Sets 03:16:21 0° 54° (NE) 3,499 12.9 -14.1°
